User: anonymous   Login
Location: Igri�s
(42.2144°N, 0.4320°W)
Time: 19:21:26
(UTC+00:00)
Language:

Cosmos 2082 Rocket - Orbit

View from above orbital plane
View from above orbital plane
View from above satellite
View from above satellite

Ground track
Ground track

The orbit data is extracted from the following two-line orbital elements,

1 20625U 90046B   20295.22701208 +.00000297 +00000-0 +17917-3 0  9990
2 20625 070.9970 104.2037 0012766 045.1088 315.1068 14.14658872570400
Epoch (UTC): 21 October 2020 05:26:53
Eccentricity: 0.0012766
inclination: 70.9970°
perigee height: 834 km
apogee height: 852 km
right ascension of ascending node: 104.2037°
argument of perigee: 45.1088°
revolutions per day: 14.14658872
mean anomaly at epoch: 315.1068°
orbit number at epoch: 57040

The dashed part of the orbit path shows where the satellite is in the earth's shadow,  

DLR